Weather History for Buffalo, MN

Change the Weather History Date:

Tuesday, September 10, 2013

  Actual Average (KSTC) Record (KSTC)
Temperature  
Mean Temperature 74 °F 61 °F  
Max Temperature 82 °F 73 °F 106 °F (1931)
Min Temperature 65 °F 49 °F 30 °F (1917)
Degree Days  
Heating Degree Days 0 6  
Month to date heating degree days 43  
Since 1 July heating degree days 101  
Cooling Degree Days 8 2  
Month to date cooling degree days 20  
Year to date cooling degree days 449  
Growing Degree Days 24 (Base 50)    
Moisture  
Dew Point 62 °F    
Average Humidity 72    
Maximum Humidity 90    
Minimum Humidity 38    
Precipitation  
Precipitation 0.01 in 0.12 in 2.38 in (1900)
Month to date precipitation 1.30  
Year to date precipitation 20.88  
Snow  
Snow 0.00 in 0.00 in 0.00 in ()
Month to date snowfall 0.0  
Since 1 July snowfall 0.0  
Since 1 September snowfall 0.0  
Snow Depth -    
Sea Level Pressure  
Sea Level Pressure 29.91 in    
Wind  
Wind Speed 5 mph (WSW)    
Max Wind Speed 16 mph    
Max Gust Speed 22 mph    
Visibility 10 miles    
Events Rain , Thunderstorm    
T = Trace of Precipitation, MM = Missing Value Source: NWS Daily Summary

Daily Weather History Graph

Daily Weather History Graph

Search for Another Location

Airport:

Trip Planner

Search our weather history database for the weather conditions in past years. The results will help you decide how hot, cold, wet, or windy it might be!

Date:

Astronomy

Sep. 10, 2013 Rise Set
Actual Time 6:48 AM CDT 7:35 PM CDT
Civil Twilight 6:18 AM CDT 8:05 PM CDT
Nautical Twilight 5:42 AM CDT 8:40 PM CDT
Astronomical Twilight 5:05 AM CDT 9:17 PM CDT
Moon 12:31 PM CDT (9/10) 10:22 PM CDT (9/10)
Length of Visible Light 13h 46m
Length of Day
12h 47m
Waxing Crescent, 28% of the Moon is Illuminated
Sep 10
Waxing Crescent
Sep 12
First Quarter
Sep 19
Full
Sep 26
Last Quarter
Oct 4
New

Hourly Weather History & Observations

Time (CDT) Temp. Heat Index Dew Point Humidity Pressure Visibility Wind Dir Wind Speed Gust Speed Precip Events Conditions
12:16 AM 72.0 °F - 64.2 °F 77% 29.79 in 10.0 mi West 9.2 mph - N/A Thunderstorm Clear
12:35 AM 71.1 °F - 63.9 °F 78% 29.81 in 10.0 mi WSW 5.8 mph - N/A   Scattered Clouds
12:56 AM 70.7 °F - 64.2 °F 80% 29.80 in 10.0 mi WSW 3.5 mph - N/A   Scattered Clouds
1:16 AM 70.0 °F - 64.4 °F 82% 29.81 in 10.0 mi WSW 3.5 mph - N/A   Scattered Clouds
1:36 AM 69.8 °F - 64.4 °F 83% 29.82 in 10.0 mi Calm Calm - N/A   Mostly Cloudy
1:56 AM 69.4 °F - 64.4 °F 84% 29.82 in 10.0 mi WSW 8.1 mph - N/A   Mostly Cloudy
2:16 AM 69.3 °F - 64.0 °F 83% 29.82 in 10.0 mi WSW 8.1 mph - N/A   Scattered Clouds
2:36 AM 69.1 °F - 64.4 °F 85% 29.84 in 10.0 mi WSW 5.8 mph - N/A   Scattered Clouds
2:56 AM 69.1 °F - 64.4 °F 85% 29.84 in 10.0 mi West 8.1 mph - N/A   Clear
3:16 AM 69.1 °F - 64.4 °F 85% 29.84 in 10.0 mi West 5.8 mph - N/A   Scattered Clouds
3:35 AM 69.1 °F - 64.4 °F 85% 29.84 in 10.0 mi West 4.6 mph - N/A   Mostly Cloudy
3:56 AM 69.1 °F - 64.2 °F 84% 29.84 in 10.0 mi West 6.9 mph - N/A   Scattered Clouds
4:15 AM 69.1 °F - 64.4 °F 85% 29.84 in 10.0 mi West 6.9 mph - N/A   Clear
4:36 AM 68.5 °F - 64.0 °F 85% 29.85 in 10.0 mi West 5.8 mph - N/A Rain Light Rain
4:56 AM 68.0 °F - 63.9 °F 87% 29.86 in 10.0 mi West 6.9 mph - N/A Rain Light Rain
5:15 AM 68.0 °F - 63.7 °F 86% 29.87 in 10.0 mi West 3.5 mph - N/A   Clear
5:36 AM 67.3 °F - 63.1 °F 87% 29.86 in 10.0 mi West 3.5 mph - N/A   Clear
5:56 AM 67.3 °F - 63.1 °F 87% 29.86 in 10.0 mi Calm Calm - N/A   Clear
6:16 AM 67.3 °F - 63.5 °F 88% 29.89 in 10.0 mi WSW 6.9 mph - N/A   Scattered Clouds
6:36 AM 67.3 °F - 63.5 °F 88% 29.90 in 10.0 mi WSW 4.6 mph - N/A   Overcast
6:56 AM 67.3 °F - 63.5 °F 88% 29.90 in 10.0 mi WSW 3.5 mph - N/A Rain Light Rain
7:16 AM 67.1 °F - 63.5 °F 88% 29.89 in 10.0 mi Calm Calm - 0.01 in Rain Light Rain
7:35 AM 66.6 °F - 63.1 °F 89% 29.88 in 10.0 mi Calm Calm - 0.01 in   Mostly Cloudy
7:56 AM 66.6 °F - 63.3 °F 89% 29.88 in 10.0 mi Calm Calm - 0.01 in Rain Light Rain
8:15 AM 66.6 °F - 63.5 °F 90% 29.89 in 10.0 mi Calm Calm - N/A   Scattered Clouds
8:36 AM 67.3 °F - 64.0 °F 89% 29.89 in 10.0 mi South 3.5 mph - N/A   Scattered Clouds
8:56 AM 67.3 °F - 63.7 °F 88% 29.90 in 10.0 mi SSW 3.5 mph - N/A   Scattered Clouds
9:16 AM 67.5 °F - 63.7 °F 88% 29.90 in 10.0 mi SSW 3.5 mph - N/A   Clear
9:35 AM 68.2 °F - 63.9 °F 86% 29.91 in 10.0 mi SSW 4.6 mph - N/A   Clear
9:56 AM 68.9 °F - 64.2 °F 85% 29.92 in 10.0 mi SSW 4.6 mph - N/A   Scattered Clouds
10:15 AM 69.1 °F - 64.0 °F 84% 29.93 in 10.0 mi SSW 4.6 mph - N/A Rain Light Rain
10:36 AM 69.4 °F - 64.4 °F 84% 29.93 in 10.0 mi SSW 3.5 mph - N/A   Mostly Cloudy
10:55 AM 69.1 °F - 64.4 °F 85% 29.94 in 10.0 mi South 4.6 mph - N/A Rain Light Rain
11:16 AM 69.8 °F - 64.8 °F 84% 29.94 in 10.0 mi SSW 4.6 mph - N/A   Scattered Clouds
11:36 AM 70.7 °F - 64.6 °F 81% 29.94 in 10.0 mi SSW 4.6 mph - N/A   Scattered Clouds
11:56 AM 71.1 °F - 64.6 °F 80% 29.94 in 10.0 mi SW 5.8 mph - N/A   Mostly Cloudy
12:16 PM 73.6 °F - 64.6 °F 73% 29.94 in 10.0 mi SSW 6.9 mph - N/A   Scattered Clouds
12:35 PM 73.9 °F - 64.2 °F 72% 29.94 in 10.0 mi SW 4.6 mph - N/A   Mostly Cloudy
12:56 PM 74.3 °F - 63.5 °F 69% 29.94 in 10.0 mi SW 4.6 mph - N/A   Mostly Cloudy
1:16 PM 76.8 °F - 63.3 °F 63% 29.94 in 10.0 mi SW 6.9 mph - N/A   Scattered Clouds
1:35 PM 77.4 °F - 63.0 °F 61% 29.94 in 10.0 mi SW 4.6 mph - N/A   Clear
1:56 PM 78.3 °F - 62.4 °F 58% 29.94 in 10.0 mi SSW 9.2 mph - N/A   Clear
2:16 PM 77.2 °F - 62.6 °F 61% 29.93 in 10.0 mi SSW 9.2 mph - N/A   Clear
2:35 PM 77.0 °F - 62.6 °F 61% 29.93 in 10.0 mi SSW 6.9 mph - N/A   Clear
2:56 PM 78.4 °F - 63.0 °F 59% 29.93 in 10.0 mi SSW 9.2 mph - N/A   Clear
3:16 PM 78.3 °F - 62.6 °F 58% 29.93 in 10.0 mi SSW 9.2 mph - N/A   Clear
3:36 PM 81.3 °F 82.6 °F 63.1 °F 54% 29.92 in 10.0 mi SSW 8.1 mph - N/A   Clear
3:56 PM 80.6 °F 81.8 °F 62.4 °F 54% 29.92 in 10.0 mi SSW 6.9 mph - N/A   Clear
4:16 PM 82.2 °F 81.8 °F 56.1 °F 41% 29.92 in 10.0 mi West 16.1 mph - N/A   Clear
4:36 PM 81.5 °F 81.6 °F 58.3 °F 45% 29.92 in 10.0 mi WSW 8.1 mph - N/A   Scattered Clouds
4:56 PM 81.7 °F 81.3 °F 55.6 °F 41% 29.92 in 10.0 mi West 12.7 mph 21.9 mph N/A   Clear
5:16 PM 81.5 °F 80.8 °F 53.8 °F 38% 29.93 in 10.0 mi WSW 11.5 mph 18.4 mph N/A   Clear
5:36 PM 80.6 °F 80.6 °F 56.3 °F 43% 29.93 in 10.0 mi West 8.1 mph 17.3 mph N/A   Clear
5:56 PM 80.1 °F 80.4 °F 56.7 °F 45% 29.93 in 10.0 mi WSW 9.2 mph - N/A   Clear
6:16 PM 79.7 °F - 56.1 °F 44% 29.93 in 10.0 mi West 10.4 mph - N/A   Clear
6:36 PM 79.3 °F - 57.2 °F 47% 29.94 in 10.0 mi West 8.1 mph - N/A   Clear
6:56 PM 76.5 °F - 57.4 °F 52% 29.94 in 10.0 mi West 4.6 mph - N/A   Clear
7:16 PM 76.1 °F - 58.5 °F 54% 29.94 in 10.0 mi WSW 3.5 mph - N/A   Clear
7:36 PM 74.5 °F - 58.5 °F 57% 29.95 in 10.0 mi WSW 4.6 mph - N/A   Clear
7:56 PM 74.3 °F - 58.5 °F 58% 29.96 in 10.0 mi WNW 6.9 mph - N/A   Clear
8:16 PM 73.6 °F - 57.7 °F 58% 29.97 in 10.0 mi WNW 6.9 mph - N/A   Clear
8:36 PM 72.5 °F - 57.9 °F 60% 29.97 in 10.0 mi WNW 3.5 mph - N/A   Clear
8:55 PM 71.1 °F - 57.7 °F 63% 29.98 in 10.0 mi WNW 4.6 mph - N/A   Clear
9:16 PM 70.3 °F - 58.1 °F 65% 29.98 in 10.0 mi Calm Calm - N/A   Clear
9:35 PM 69.1 °F - 58.3 °F 68% 29.98 in 10.0 mi Calm Calm - N/A   Clear
9:56 PM 69.1 °F - 58.5 °F 69% 29.99 in 10.0 mi Calm Calm - N/A   Clear
10:16 PM 68.9 °F - 58.6 °F 70% 29.99 in 10.0 mi Calm Calm - N/A   Clear
10:35 PM 67.3 °F - 58.8 °F 74% 29.99 in 10.0 mi Calm Calm - N/A   Clear
10:56 PM 66.9 °F - 58.5 °F 74% 30.00 in 10.0 mi Calm Calm - N/A   Clear
11:16 PM 66.4 °F - 58.6 °F 76% 30.00 in 10.0 mi Calm Calm - N/A   Clear
11:35 PM 65.3 °F - 58.8 °F 80% 30.01 in 10.0 mi Calm Calm - N/A   Clear
11:56 PM 65.1 °F - 59.0 °F 81% 30.01 in 10.0 mi Calm Calm - N/A   Clear